This demonstration page uses our WeatherBlox Daily Observations layout. Learn more.

Left ArrowRight Arrow

38.80484, -77.04692

Hourly Observations for December 11, 2021

Temp ( °F °C ) Dew Point ( °F °C ) Humidity (%) Winds ( mph kmh ) Pressure ( in mb ) Visibility ( mi km ) Precip ( " mm )
12:52 am 00:52 Cloudy 49 9.4 45 7.2 86 86 Calm 30.01 1016 9 14 0.00 0.00
1:52 am 01:52 Cloudy 49 9.4 46 7.8 90 90 S 5 7 29.99 1016 7 11 0.00 0.00
2:52 am 02:52 Cloudy 50 10 46 7.8 86 86 S 8 13 29.97 1015 7 11 0.00 0.00
3:44 am 03:44 Cloudy 50 10 47 8.3 89 89 SSW 8 13 29.95 1014 7 11 0.00 0.00
3:52 am 03:52 Cloudy 51 10.6 48 8.9 89 89 SSW 6 9 29.94 1014 8 13 0.00 0.00
4:52 am 04:52 Cloudy 51 10.6 48 8.9 89 89 SSW 7 11 29.91 1013 8 13 0.00 0.00
5:52 am 05:52 Cloudy 51 10.6 48 8.9 89 89 S 13 20 29.89 1012 9 14 0.00 0.00
6:52 am 06:52 Cloudy 52 11.1 49 9.4 89 89 S 14 22 29.87 1012 10 16 0.00 0.00
7:52 am 07:52 Cloudy 57 13.9 52 11.1 83 83 S 15 24 29.86 1011 10 16 0.00 0.00
8:52 am 08:52 Cloudy 58 14.4 53 11.7 84 84 S 17 28 29.85 1011 10 16 0.00 0.00
9:52 am 09:52 Cloudy 60 15.6 54 12.2 80 80 S 21 33 29.83 1010 10 16 0.00 0.00
10:15 am 10:15 Cloudy 61 16.1 55 12.8 81 81 SSW 21 33 29.82 1010 10 16 0.00 0.00
10:52 am 10:52 Cloudy 63 17.2 55 12.8 76 76 SSW 21 33 29.80 1009 10 16 0.00 0.00
11:22 am 11:22 Cloudy 64 17.8 56 13.3 75 75 SSW 20 31 29.79 1009 10 16 0.00 0.00
11:52 am 11:52 Cloudy 65 18.3 56 13.3 73 73 SSW 20 31 29.75 1008 10 16 0.00 0.00
12:14 pm 12:14 Cloudy 65 18.3 56 13.3 73 73 SSW 21 33 29.74 1007 10 16 0.00 0.00
12:52 pm 12:52 Cloudy 66 18.9 57 13.9 73 73 SSW 17 28 29.71 1006 10 16 0.00 0.00
1:52 pm 13:52 Cloudy 67 19.4 58 14.4 73 73 SSW 17 28 29.71 1006 10 16 0.00 0.00
1:56 pm 13:56 Cloudy 67 19.4 58 14.4 73 73 SSW 15 24 29.71 1006 10 16 0.00 0.00
2:52 pm 14:52 Cloudy 68 20 58 14.4 70 70 SSW 16 26 29.72 1006 10 16 0.00 0.00
3:52 pm 15:52 Cloudy 69 20.6 58 14.4 68 68 SSW 22 35 29.70 1006 10 16 0.00 0.00
4:52 pm 16:52 Cloudy 67 19.4 59 15 76 76 SSW 16 26 29.67 1005 10 16 0.00 0.00
5:52 pm 17:52 Cloudy 67 19.4 56 13.3 68 68 SSW 15 24 29.65 1004 10 16 0.00 0.00
6:52 pm 18:52 Cloudy with Light Rain 64 17.8 58 14.4 81 81 S 17 28 29.64 1004 10 16 0.00 0.00
7:52 pm 19:52 Cloudy with Light Rain 64 17.8 57 13.9 78 78 SSW 18 30 29.67 1005 10 16 0.01 0.25
8:52 pm 20:52 Cloudy with Light Rain 63 17.2 57 13.9 81 81 NW 22 35 29.75 1008 7 11 0.02 0.51
9:01 pm 21:01 Cloudy with Heavy Rain 58 14.4 52 11.1 81 81 W 17 28 29.76 1008 3 4 0.06 1.52
9:15 pm 21:15 Cloudy with Light Rain 57 13.9 52 11.1 83 83 W 9 15 29.77 1008 7 11 0.12 3.05
9:52 pm 21:52 Cloudy 57 13.9 36 2.2 45 45 WNW 18 30 29.78 1009 10 16 0.13 3.30
10:52 pm 22:52 Cloudy 53 11.7 32 0 45 45 NW 24 39 29.87 1012 10 16 0.00 0.00
11:52 pm 23:52 Cloudy 49 9.4 27 -2.8 43 43 WNW 20 31 29.93 1013 10 16 0.00 0.00

Powered by AerisWeather